TimeEST,TemperatureF,Dew PointF,Humidity,Sea Level PressureIn,VisibilityMPH,Wind Direction,Wind SpeedMPH,Gust SpeedMPH,PrecipitationIn,Events,Conditions,WindDirDegrees,DateUTC
12:53 AM,61.0,57.9,90,30.18,10.0,Calm,Calm,-,N/A,,Clear,0,2012-02-16 05:53:00
1:53 AM,62.1,59.0,90,30.17,10.0,Calm,Calm,-,N/A,,Clear,0,2012-02-16 06:53:00
2:53 AM,60.1,57.9,93,30.15,10.0,Calm,Calm,-,N/A,,Clear,0,2012-02-16 07:53:00
3:53 AM,61.0,57.9,90,30.14,10.0,Calm,Calm,-,N/A,,Clear,0,2012-02-16 08:53:00
4:53 AM,61.0,57.9,90,30.15,10.0,Calm,Calm,-,N/A,,Clear,0,2012-02-16 09:53:00
5:53 AM,63.0,59.0,87,30.16,10.0,ESE,3.5,-,N/A,,Clear,120,2012-02-16 10:53:00
6:53 AM,62.1,59.0,90,30.16,10.0,ESE,3.5,-,N/A,,Clear,110,2012-02-16 11:53:00
7:53 AM,64.9,61.0,87,30.15,10.0,SE,6.9,-,N/A,,Clear,140,2012-02-16 12:53:00
8:53 AM,69.1,62.1,78,30.16,10.0,SSE,10.4,-,N/A,,Clear,150,2012-02-16 13:53:00
9:53 AM,73.0,64.0,73,30.17,10.0,SSE,13.8,-,N/A,,Clear,150,2012-02-16 14:53:00
10:53 AM,77.0,63.0,62,30.17,10.0,South,13.8,-,N/A,,Clear,170,2012-02-16 15:53:00
11:53 AM,78.1,64.0,62,30.16,10.0,South,16.1,-,N/A,,Clear,190,2012-02-16 16:53:00
12:53 PM,78.1,64.9,64,30.14,10.0,South,13.8,20.7,N/A,,Clear,190,2012-02-16 17:53:00
1:53 PM,78.1,63.0,60,30.13,10.0,SSW,13.8,-,N/A,,Clear,200,2012-02-16 18:53:00
2:53 PM,77.0,63.0,62,30.12,10.0,South,12.7,-,N/A,,Clear,190,2012-02-16 19:53:00
3:53 PM,77.0,63.0,62,30.10,10.0,South,11.5,-,N/A,,Clear,190,2012-02-16 20:53:00
4:53 PM,75.9,63.0,64,30.09,10.0,SSW,11.5,-,N/A,,Partly Cloudy,200,2012-02-16 21:53:00
5:53 PM,73.9,63.0,68,30.09,10.0,South,8.1,-,N/A,,Clear,190,2012-02-16 22:53:00
6:53 PM,71.6,62.6,73,30.09,10.0,South,6.9,-,N/A,,Partly Cloudy,190,2012-02-16 23:53:00
7:53 PM,71.1,63.0,75,30.10,10.0,SSW,4.6,-,N/A,,Scattered Clouds,200,2012-02-17 00:53:00
8:53 PM,70.0,63.0,78,30.09,10.0,South,6.9,-,N/A,,Clear,190,2012-02-17 01:53:00
9:53 PM,69.1,64.0,84,30.09,10.0,SSW,5.8,-,N/A,,Clear,200,2012-02-17 02:53:00
10:53 PM,70.0,64.0,81,30.09,10.0,SW,5.8,-,N/A,,Clear,220,2012-02-17 03:53:00
11:15 PM,69.8,64.4,83,30.09,10.0,SW,4.6,-,N/A,,Mostly Cloudy,220,2012-02-17 04:15:00
11:36 PM,69.8,64.4,83,30.08,10.0,SW,5.8,-,N/A,,Scattered Clouds,220,2012-02-17 04:36:00
11:53 PM,69.1,64.0,84,30.08,10.0,SW,3.5,-,N/A,,Clear,220,2012-02-17 04:53:00